When you browse on this site, cookies collect data to enhance your experience and personalize the content and advertising you see.
Visit our Privacy Policy to learn more. By continuing to use the site, you agree to this use of cookies and data.
  • In Hungary
  • List of Countries
  • For 7 days
  • Water Temperature
  • Satellite Maps
  • Weather Map
  • News
  • Weather Widgets
  • user-avatar
    Login

    Hourly Weather Bitola

    Today, 16 January, Wednesday

    Time Temperature Precipitation Wind Pressure Humidity
    00:00 -12°C° 0 mm 2 mps 703 mmHg 84%
    01:00 -12°C° 0 mm 2 mps 703 mmHg 83%
    02:00 -12°C° 0 mm 2 mps 703 mmHg 82%
    03:00 -12°C° 0 mm 2 mps 703 mmHg 81%
    04:00 -12°C° 0 mm 2 mps 703 mmHg 79%
    05:00 -10°C° 0 mm 2 mps 704 mmHg 78%
    06:00 -10°C° 0 mm 2 mps 704 mmHg 77%
    07:00 -10°C° 0 mm 2 mps 704 mmHg 76%
    08:00 -7°C° 0 mm 2 mps 705 mmHg 77%
    09:00 -5°C° 0 mm 2 mps 705 mmHg 77%
    10:00 -3°C° 0 mm 2 mps 705 mmHg 78%
    11:00 -2°C° 0 mm 2 mps 705 mmHg 80%
    12:00 -1°C° 0 mm 2 mps 705 mmHg 82%
    13:00 +1°C° 0 mm 2 mps 705 mmHg 84%
    14:00 +1°C° 0 mm 2 mps 705 mmHg 83%
    15:00 -1°C° 0 mm 2 mps 705 mmHg 82%
    16:00 -1°C° 0 mm 2 mps 705 mmHg 81%
    17:00 -2°C° 0 mm 2 mps 705 mmHg 81%
    18:00 -3°C° 0 mm 2 mps 705 mmHg 80%
    19:00 -4°C° 0 mm 2 mps 705 mmHg 80%
    20:00 -4°C° 0 mm 2 mps 705 mmHg 80%
    21:00 -4°C° 0 mm 2 mps 705 mmHg 80%
    22:00 -5°C° 0 mm 2 mps 705 mmHg 80%
    23:00 -4°C° 0 mm 2 mps 705 mmHg 80%

    Tomorrow, 17 January, Thursday

    Time Temperature Precipitation Wind Pressure Humidity
    00:00 -4°C° 0 mm 2 mps 705 mmHg 80%
    01:00 -4°C° 0 mm 2 mps 705 mmHg 80%
    02:00 -4°C° 0 mm 2 mps 705 mmHg 80%
    03:00 -4°C° 0 mm 2 mps 705 mmHg 79%
    04:00 -4°C° 0 mm 2 mps 705 mmHg 79%
    05:00 -4°C° 0 mm 2 mps 705 mmHg 78%
    06:00 -4°C° 0 mm 2 mps 705 mmHg 78%
    07:00 -4°C° 0 mm 2 mps 705 mmHg 77%
    08:00 -2°C° 0 mm 2 mps 705 mmHg 80%
    09:00 -1°C° 0 mm 2 mps 705 mmHg 84%
    10:00 +3°C° 0 mm 1 mps 705 mmHg 87%
    11:00 +4°C° 0 mm 1 mps 705 mmHg 90%
    12:00 +4°C° 0 mm 1 mps 705 mmHg 94%
    13:00 +5°C° 0 mm 1 mps 704 mmHg 98%
    14:00 +4°C° 0 mm 1 mps 704 mmHg 93%
    15:00 +4°C° 0 mm 1 mps 704 mmHg 88%
    16:00 +3°C° 0 mm 1 mps 704 mmHg 84%
    17:00 +1°C° 0 mm 2 mps 704 mmHg 81%
    18:00 -1°C° 0 mm 2 mps 704 mmHg 78%
    19:00 -2°C° 0 mm 2 mps 704 mmHg 75%
    20:00 -2°C° 0 mm 2 mps 704 mmHg 74%
    21:00 -2°C° 0 mm 2 mps 704 mmHg 73%
    22:00 -2°C° 0 mm 2 mps 704 mmHg 72%
    23:00 -3°C° 0 mm 2 mps 704 mmHg 74%

    Day after tomorrow, 18 January, Friday

    Time Temperature Precipitation Wind Pressure Humidity
    00:00 -3°C° 0 mm 2 mps 704 mmHg 75%
    01:00 -3°C° 0 mm 2 mps 704 mmHg 76%
    02:00 -2°C° 0 mm 2 mps 703 mmHg 78%
    03:00 -2°C° 0 mm 2 mps 703 mmHg 79%
    04:00 0°C° 0 mm 1 mps 703 mmHg 81%
    05:00 +1°C° 0 mm 1 mps 703 mmHg 82%
    06:00 -1°C° 0 mm 2 mps 703 mmHg 83%
    07:00 +1°C° 0 mm 2 mps 703 mmHg 83%
    08:00 +3°C° 0.3 mm 1 mps 703 mmHg 88%
    09:00 +4°C° 0.3 mm 1 mps 703 mmHg 93%
    10:00 +4°C° 0.3 mm 1 mps 704 mmHg 97%
    11:00 +5°C° 0.2 mm 1 mps 703 mmHg 98%
    12:00 +5°C° 0.2 mm 1 mps 703 mmHg 98%
    13:00 +5°C° 0.2 mm 1 mps 703 mmHg 99%
    14:00 +5°C° 0 mm 1 mps 703 mmHg 98%
    15:00 +5°C° 0 mm 1 mps 703 mmHg 98%
    16:00 +4°C° 0 mm 1 mps 703 mmHg 97%
    17:00 +4°C° 0 mm 1 mps 703 mmHg 96%
    18:00 +4°C° 0 mm 1 mps 703 mmHg 95%
    19:00 +3°C° 0 mm 0 mps 704 mmHg 94%
    20:00 +3°C° 0 mm 0 mps 704 mmHg 94%
    21:00 +2°C° 0 mm 0 mps 704 mmHg 94%
    22:00 +2°C° 0 mm 0 mps 704 mmHg 93%
    23:00 +2°C° 0 mm 0 mps 704 mmHg 93%

    19 January, Saturday

    Time Temperature Precipitation Wind Pressure Humidity
    00:00 +2°C° 0 mm 0 mps 704 mmHg 92%
    01:00 +2°C° 0 mm 0 mps 704 mmHg 92%
    02:00 +1°C° 0 mm 0 mps 704 mmHg 91%
    03:00 +2°C° 0 mm 1 mps 703 mmHg 91%
    04:00 +2°C° 0 mm 1 mps 703 mmHg 90%
    05:00 +2°C° 0 mm 1 mps 703 mmHg 90%
    06:00 +2°C° 0 mm 1 mps 703 mmHg 90%
    07:00 +2°C° 0 mm 1 mps 703 mmHg 89%
    08:00 +3°C° 0 mm 1 mps 703 mmHg 92%
    09:00 +4°C° 0 mm 1 mps 704 mmHg 95%
    10:00 +5°C° 0 mm 1 mps 704 mmHg 97%
    11:00 +5°C° 0 mm 1 mps 703 mmHg 97%
    12:00 +5°C° 0 mm 1 mps 703 mmHg 97%
    13:00 +5°C° 0 mm 1 mps 703 mmHg 97%
    14:00 +5°C° 0 mm 1 mps 703 mmHg 97%
    15:00 +4°C° 0 mm 1 mps 702 mmHg 97%
    16:00 +4°C° 0 mm 1 mps 702 mmHg 97%
    17:00 +4°C° 0.1 mm 1 mps 702 mmHg 96%
    18:00 +4°C° 0.1 mm 1 mps 703 mmHg 95%
    19:00 +3°C° 0.1 mm 1 mps 703 mmHg 93%
    20:00 +3°C° 0.1 mm 1 mps 703 mmHg 93%
    21:00 +3°C° 0.1 mm 1 mps 703 mmHg 93%
    22:00 +2°C° 0.1 mm 2 mps 703 mmHg 92%
    23:00 +2°C° 0.1 mm 2 mps 703 mmHg 92%

    20 January, Sunday

    Time Temperature Precipitation Wind Pressure Humidity
    00:00 +2°C° 0.1 mm 2 mps 702 mmHg 92%
    01:00 +2°C° 0.1 mm 2 mps 702 mmHg 92%
    02:00 +2°C° 0.1 mm 2 mps 702 mmHg 92%
    03:00 +2°C° 0.1 mm 2 mps 701 mmHg 92%
    04:00 +2°C° 0.1 mm 2 mps 701 mmHg 92%
    05:00 +2°C° 0.1 mm 2 mps 701 mmHg 92%
    06:00 +2°C° 0.1 mm 2 mps 701 mmHg 91%
    07:00 +2°C° 0.1 mm 2 mps 701 mmHg 91%
    08:00 +2°C° 0 mm 2 mps 701 mmHg 93%
    09:00 +3°C° 0 mm 2 mps 701 mmHg 94%
    10:00 +4°C° 0 mm 2 mps 702 mmHg 96%
    11:00 +4°C° 0 mm 2 mps 701 mmHg 96%
    12:00 +4°C° 0 mm 2 mps 701 mmHg 95%
    13:00 +5°C° 0 mm 2 mps 701 mmHg 95%
    14:00 +4°C° 0 mm 2 mps 701 mmHg 95%
    15:00 +5°C° 0 mm 1 mps 701 mmHg 95%
    16:00 +5°C° 0 mm 1 mps 701 mmHg 95%
    17:00 +5°C° 0 mm 1 mps 701 mmHg 94%
    18:00 +4°C° 0 mm 1 mps 701 mmHg 92%
    19:00 +4°C° 0 mm 1 mps 702 mmHg 91%
    20:00 +4°C° 0 mm 1 mps 702 mmHg 91%
    21:00 +3°C° 0 mm 1 mps 702 mmHg 91%
    22:00 +3°C° 0 mm 1 mps 702 mmHg 90%
    23:00 +3°C° 0 mm 1 mps 703 mmHg 91%

    21 January, Monday

    Time Temperature Precipitation Wind Pressure Humidity
    00:00 +3°C° 0 mm 1 mps 703 mmHg 91%
    01:00 +2°C° 0 mm 1 mps 703 mmHg 91%
    02:00 +2°C° 0 mm 1 mps 703 mmHg 92%
    03:00 +2°C° 0 mm 1 mps 703 mmHg 93%
    04:00 +2°C° 0 mm 1 mps 703 mmHg 94%
    05:00 +2°C° 0 mm 1 mps 704 mmHg 94%
    06:00 +2°C° 0 mm 1 mps 704 mmHg 94%
    07:00 +1°C° 0 mm 2 mps 704 mmHg 94%
    08:00 +1°C° 0 mm 2 mps 705 mmHg 93%
    09:00 +2°C° 0 mm 2 mps 705 mmHg 92%
    10:00 +2°C° 0 mm 2 mps 705 mmHg 91%
    11:00 +2°C° 0.1 mm 2 mps 705 mmHg 90%
    12:00 +2°C° 0.1 mm 2 mps 705 mmHg 90%
    13:00 +3°C° 0.1 mm 2 mps 705 mmHg 90%
    14:00 +2°C° 0.1 mm 2 mps 705 mmHg 90%
    15:00 +2°C° 0.1 mm 2 mps 705 mmHg 90%
    16:00 +2°C° 0.1 mm 2 mps 705 mmHg 89%
    17:00 +2°C° 0.1 mm 1 mps 705 mmHg 90%
    18:00 +2°C° 0.1 mm 1 mps 705 mmHg 90%
    19:00 +1°C° 0.1 mm 1 mps 705 mmHg 91%
    20:00 +1°C° 0.1 mm 1 mps 705 mmHg 91%
    21:00 +1°C° 0.1 mm 1 mps 705 mmHg 91%
    22:00 +1°C° 0.1 mm 1 mps 705 mmHg 91%
    23:00 +1°C° 0.2 mm 1 mps 705 mmHg 91%
    Show more